K7KAR-2 Weather Reports


time (UTC)temp
F
wind
direction
speed
knots
gust
knots
rain 1hr
in
rain 24hr
in
rain mn
in
humidity
%
barometer
mb
20260504173751 50 44 6.1 7.0 0.00 0.00 0.00 15 1014.3
20260504173248 51 40 6.1 7.0 0.00 0.00 0.00 14 1014.6
20260504172744 50 49 10.4 13.0 0.00 0.00 0.00 14 1014.6
20260504172241 50 41 7.8 8.7 0.00 0.00 0.00 14 1014.6
20260504171737 51 38 7.8 8.7 0.00 0.00 0.00 11 1014.5
20260504171234 51 36 9.6 12.2 0.00 0.00 0.00 12 1014.6
20260504170731 51 43 7.0 7.8 0.00 0.00 0.00 13 1014.5
20260504170228 51 54 7.8 9.6 0.00 0.00 0.00 13 1014.6
20260504160147 50 94 4.3 7.8 0.00 0.00 0.00 19 1014.5
20260504151115 49 97 7.0 7.8 0.00 0.00 0.00 32 1014.9
20260504150612 49 108 5.2 7.0 0.00 0.00 0.00 32 1014.7
20260504150109 48 112 6.1 7.0 0.00 0.00 0.00 32 1014.7
20260504141037 47 100 5.2 7.0 0.00 0.00 0.00 35 1014.8
20260504140534 47 105 6.1 7.8 0.00 0.00 0.00 36 1014.7
20260504130458 46 101 7.0 9.6 0.00 0.00 0.00 31 1014.7
20260504110345 46 20 6.1 12.2 0.00 0.00 0.00 34 1013.6
20260504100258 48 35 4.3 5.2 0.00 0.00 0.00 24 1012.6
20260504081651 52 96 12.2 19.1 0.00 0.00 0.00 13 1010.7
20260504081147 52 84 8.7 13.9 0.00 0.00 0.00 13 1010.7
20260504080644 52 62 10.4 13.0 0.00 0.00 0.00 13 1010.6
20260504080140 52 76 13.9 18.2 0.00 0.00 0.00 12 1010.3
20260504070109 54 20 6.1 7.8 0.00 0.00 0.00 14 1009.2
20260504050457 53 20 0.0 0.0 0.00 0.00 0.00 12 1007.3
20260504045954 54 20 2.6 2.6 0.00 0.00 0.00 12 1007.3
20260504045450 54 20 0.0 0.0 0.00 0.00 0.00 12 1007.5
20260504044946 57 20 0.0 0.0 0.00 0.00 0.00 10 1007.4
20260504044443 57 20 0.0 0.0 0.00 0.00 0.00 10 1007.4
20260504043941 57 20 1.7 1.7 0.00 0.00 0.00 10 1007.3
20260504043437 55 20 2.6 2.6 0.00 0.00 0.00 10 1007.3
20260504042935 53 20 2.6 2.6 0.00 0.00 0.00 14 1007.4
20260504042432 54 20 2.6 2.6 0.00 0.00 0.00 13 1007.3
20260504041928 60 20 1.7 1.7 0.00 0.00 0.00 10 1007.2
20260504041424 60 20 1.7 2.6 0.00 0.00 0.00 10 1007.3
20260504040920 60 20 3.5 4.3 0.00 0.00 0.00 10 1007.4
20260504040419 59 20 2.6 4.3 0.00 0.00 0.00 10 1007.3
20260504035914 61 20 0.9 1.7 0.00 0.00 0.00 10 1007.4
20260504035412 61 21 4.3 4.3 0.00 0.00 0.00 10 1007.4
20260504034908 61 26 2.6 2.6 0.00 0.00 0.00 10 1007.4
20260504034405 62 31 4.3 5.2 0.00 0.00 0.00 10 1007.5
20260504033902 62 31 6.1 7.0 0.00 0.00 0.00 10 1007.2
20260504033400 62 26 5.2 6.1 0.00 0.00 0.00 10 1007.4
20260504032856 62 22 6.1 7.0 0.00 0.00 0.00 10 1007.3
20260504032353 62 20 5.2 6.1 0.00 0.00 0.00 10 1007.2
20260504031850 62 20 6.1 7.8 0.00 0.00 0.00 10 1007.2
20260504031347 62 20 5.2 7.8 0.00 0.00 0.00 10 1007.2
20260504030844 63 20 6.1 7.0 0.00 0.00 0.00 10 1006.8
20260504030342 63 20 6.1 7.8 0.00 0.00 0.00 10 1007.0
20260504025837 62 20 5.2 5.2 0.00 0.00 0.00 10 1007.0
20260504025334 63 20 3.5 4.3 0.00 0.00 0.00 10 1007.2
20260504024831 64 20 4.3 5.2 0.00 0.00 0.00 10 1006.8
20260504024327 63 21 5.2 6.1 0.00 0.00 0.00 10 1006.7
20260504023824 64 20 3.5 4.3 0.00 0.00 0.00 10 1006.7
20260504023321 65 20 3.5 4.3 0.00 0.00 0.00 10 1007.0
20260504022816 65 20 3.5 5.2 0.00 0.00 0.00 10 1006.7
20260504022314 66 20 4.3 5.2 0.00 0.00 0.00 10 1006.7
20260504021810 67 20 5.2 7.0 0.00 0.00 0.00 10 1006.7
20260504021308 68 20 6.1 7.0 0.00 0.00 0.00 10 1006.5
20260504020804 68 20 6.1 7.8 0.00 0.00 0.00 10 1006.5
20260504020301 68 20 6.1 7.0 0.00 0.00 0.00 10 1006.4
20260504015757 68 20 6.1 7.0 0.00 0.00 0.00 10 1006.6
20260504015253 69 20 7.8 8.7 0.00 0.00 0.00 10 1006.6
20260504014749 69 22 7.8 8.7 0.00 0.00 0.00 10 1006.7
20260504014246 69 22 7.8 8.7 0.00 0.00 0.00 10 1006.5
20260504013744 70 22 5.2 7.8 0.00 0.00 0.00 10 1006.4
20260504013241 70 24 10.4 13.0 0.00 0.00 0.00 10 1006.7
20260504012738 70 20 9.6 12.2 0.00 0.00 0.00 10 1006.4
20260504012236 71 20 7.0 8.7 0.00 0.00 0.00 10 1006.5
20260504011732 71 21 10.4 12.2 0.00 0.00 0.00 10 1006.7
20260504011229 71 21 9.6 11.3 0.00 0.00 0.00 10 1006.4
20260504010725 71 20 11.3 13.0 0.00 0.00 0.00 10 1006.5
20260504010220 72 20 11.3 13.0 0.00 0.00 0.00 10 1006.8
20260504005717 72 20 9.6 13.0 0.00 0.00 0.00 10 1006.7
20260504005215 72 21 9.6 12.2 0.00 0.00 0.00 10 1006.8
20260504004712 73 22 6.1 7.0 0.00 0.00 0.00 10 1006.8
20260504004209 72 25 10.4 12.2 0.00 0.00 0.00 10 1006.8
20260504003706 72 27 7.8 11.3 0.00 0.00 0.00 10 1006.6
20260504003203 72 29 12.2 14.8 0.00 0.00 0.00 10 1006.5
20260504002659 72 30 13.9 15.6 0.00 0.00 0.00 10 1006.6
20260504002156 73 27 10.4 13.0 0.00 0.00 0.00 10 1006.7
20260504001655 73 28 9.6 12.2 0.00 0.00 0.00 10 1006.8
20260504001150 73 32 7.8 9.6 0.00 0.00 0.00 10 1006.8
20260504000647 74 38 11.3 13.0 0.00 0.00 0.00 10 1006.7
20260504000145 74 47 8.7 11.3 0.00 0.00 0.00 10 1006.4
20260503235643 73 61 7.8 11.3 0.00 0.00 0.00 10 1006.7
20260503235139 74 64 12.2 13.9 0.00 0.00 0.00 10 1006.7
20260503234638 74 56 7.8 13.9 0.00 0.00 0.00 10 1006.6
20260503234135 74 42 6.1 7.0 0.00 0.00 0.00 10 1006.7
20260503233632 75 34 7.8 12.2 0.00 0.00 0.00 10 1006.8
20260503233127 74 39 5.2 6.1 0.00 0.00 0.00 10 1007.2
20260503232625 74 49 5.2 7.0 0.00 0.00 0.00 10 1007.1
20260503232122 75 63 6.1 7.8 0.00 0.00 0.00 10 1007.1
20260503231620 74 65 6.1 7.0 0.00 0.00 0.00 10 1007.1
20260503231116 74 53 10.4 11.3 0.00 0.00 0.00 10 1007.1
20260503230613 75 47 3.5 5.2 0.00 0.00 0.00 10 1007.1
20260503230110 75 46 0.9 0.9 0.00 0.00 0.00 10 1007.1
20260503225608 75 53 4.3 5.2 0.00 0.00 0.00 10 1007.1
20260503225102 75 51 7.0 7.8 0.00 0.00 0.00 10 1007.3
20260503224600 75 51 8.7 9.6 0.00 0.00 0.00 10 1007.5
20260503224058 75 53 2.6 4.3 0.00 0.00 0.00 10 1007.7
20260503223556 74 60 4.3 5.2 0.00 0.00 0.00 10 1007.5
20260503223051 74 68 6.1 11.3 0.00 0.00 0.00 10 1007.7
20260503222549 75 51 7.0 9.6 0.00 0.00 0.00 10 1007.6
20260503222047 74 39 3.5 5.2 0.00 0.00 0.00 10 1007.8
20260503221545 74 45 7.0 8.7 0.00 0.00 0.00 10 1007.9
20260503221042 74 49 7.8 8.7 0.00 0.00 0.00 10 1007.9
20260503220538 74 30 4.3 6.1 0.00 0.00 0.00 10 1008.1
20260503220035 73 32 7.8 9.6 0.00 0.00 0.00 10 1008.1
20260503215532 73 34 0.0 0.0 0.00 0.00 0.00 10 1008.3
20260503215029 73 44 7.0 7.8 0.00 0.00 0.00 10 1008.3
20260503214527 73 51 5.2 7.0 0.00 0.00 0.00 10 1008.4
20260503214024 74 60 7.8 11.3 0.00 0.00 0.00 10 1008.5
20260503213522 75 40 5.2 7.0 0.00 0.00 0.00 10 1008.4
20260503213018 74 28 3.5 5.2 0.00 0.00 0.00 10 1008.8
20260503212516 73 27 1.7 1.7 0.00 0.00 0.00 10 1008.8
20260503212013 73 28 1.7 1.7 0.00 0.00 0.00 10 1009.1
20260503211510 73 32 8.7 9.6 0.00 0.00 0.00 10 1008.9
20260503211011 73 36 5.2 7.0 0.00 0.00 0.00 10 1008.9
20260503210508 74 35 1.7 2.6 0.00 0.00 0.00 10 1008.7
20260503210003 72 40 0.0 0.0 0.00 0.00 0.00 10 1009.2
20260503205500 72 53 2.6 4.3 0.00 0.00 0.00 10 1009.3
20260503204956 72 50 0.0 0.0 0.00 0.00 0.00 10 1009.5
20260503204454 72 39 2.6 5.2 0.00 0.00 0.00 10 1009.4
20260503203950 71 52 4.3 4.3 0.00 0.00 0.00 10 1009.6
20260503203448 71 89 6.1 7.0 0.00 0.00 0.00 10 1009.6
20260503202944 72 75 7.8 7.8 0.00 0.00 0.00 10 1009.8
20260503202443 71 71 3.5 5.2 0.00 0.00 0.00 10 1009.8
20260503201941 71 79 2.6 4.3 0.00 0.00 0.00 10 1010.1
20260503201438 70 93 5.2 7.0 0.00 0.00 0.00 10 1010.1
20260503200935 71 119 9.6 11.3 0.00 0.00 0.00 10 1010.2
20260503200431 71 128 7.0 7.0 0.00 0.00 0.00 10 1010.4
20260503195928 73 123 4.3 6.1 0.00 0.00 0.00 10 1010.6
20260503195426 71 128 7.8 8.7 0.00 0.00 0.00 10 1010.6
20260503194922 70 129 8.7 9.6 0.00 0.00 0.00 10 1010.6
20260503194419 70 141 7.8 8.7 0.00 0.00 0.00 10 1010.4
20260503193914 70 147 14.8 17.4 0.00 0.00 0.00 10 1010.6
20260503193410 70 136 7.8 8.7 0.00 0.00 0.00 10 1010.8
20260503192906 70 125 6.1 7.8 0.00 0.00 0.00 10 1011.0
20260503192401 69 111 3.5 5.2 0.00 0.00 0.00 10 1011.0
20260503191858 70 124 0.0 0.9 0.00 0.00 0.00 10 1011.3
20260503191355 69 128 2.6 2.6 0.00 0.00 0.00 10 1011.6
20260503190852 70 141 9.6 11.3 0.00 0.00 0.00 10 1011.6
20260503190349 69 146 14.8 17.4 0.00 0.00 0.00 10 1011.5
20260503185846 69 140 7.0 8.7 0.00 0.00 0.00 10 1011.5
20260503185342 69 143 12.2 13.9 0.00 0.00 0.00 10 1011.8
20260503184842 69 141 6.1 7.0 0.00 0.00 0.00 10 1011.7
20260503184338 68 135 5.2 7.0 0.00 0.00 0.00 10 1011.9
20260503183834 69 121 6.1 7.8 0.00 0.00 0.00 13 1012.0
20260503183332 69 110 4.3 6.1 0.00 0.00 0.00 12 1011.9
20260503182829 68 126 3.5 5.2 0.00 0.00 0.00 12 1012.2
20260503182328 67 125 7.8 7.8 0.00 0.00 0.00 11 1012.2
20260503181825 68 124 12.2 15.6 0.00 0.00 0.00 13 1012.0
20260503181322 69 112 6.1 7.0 0.00 0.00 0.00 15 1012.0
20260503180818 68 103 7.8 8.7 0.00 0.00 0.00 16 1011.9
20260503180317 68 92 10.4 13.0 0.00 0.00 0.00 20 1012.4
20260503175812 68 91 4.3 6.1 0.00 0.00 0.00 22 1012.6
20260503175311 68 95 4.3 5.2 0.00 0.00 0.00 22 1012.8
20260503174806 65 96 6.1 7.0 0.00 0.00 0.00 23 1012.7
20260503174305 66 89 6.1 11.3 0.00 0.00 0.00 25 1012.7